|
NORAD ID: 32041 Int'l Code: 2006-006U
Perigee: 349.0 km
Apogee: 12,897.6 km
Inclination: 51.7 °
Period: 245.7 minutes
Semi major axis: 12994 km
Launch date: February 28, 2006
Source: Commonwealth of Independent States (former USSR) (CIS)
Note: This is SATELLITE DEBRIS
Two Line Element Set (TLE):
1 32041U 06006U 13170.41635363 .00011621 00000-0 30876-2 0 8878
2 32041 051.7235 157.7769 4828512 126.2811 288.7152 05.86101516125642
Source:
NASA's NSSDC Master Catalog entry for BREEZE-M DEB
|